EDT,Max TemperatureF,Mean TemperatureF,Min TemperatureF,Max Dew PointF,MeanDew PointF,Min DewpointF,Max Humidity, Mean Humidity, Min Humidity, Max Sea Level PressureIn, Mean Sea Level PressureIn, Min Sea Level PressureIn, Max VisibilityMiles, Mean VisibilityMiles, Min VisibilityMiles, Max Wind SpeedMPH, Mean Wind SpeedMPH, Max Gust SpeedMPH,PrecipitationIn, CloudCover, Events, WindDirDegrees
2012-10-1,66,52,39,52,45,37,100,84,52,29.97,29.92,29.83,10,7,0,9,2,,0.02,2,Fog-Rain,102
2012-10-2,66,60,53,63,58,52,96,89,79,29.91,29.84,29.79,10,7,3,12,6,,0.35,8,Rain,62
2012-10-3,71,65,59,63,59,52,100,84,61,30.13,29.98,29.86,10,6,0,17,6,25,0.04,7,Fog-Rain,220
2012-10-4,75,64,54,53,51,50,87,66,43,30.16,30.12,30.07,10,10,10,15,8,28,0.00,1,Rain,223
2012-10-5,64,56,46,55,52,44,94,84,68,30.09,30.04,29.99,10,8,3,12,8,18,0.70,7,Rain,282
2012-10-6,55,48,41,43,38,32,93,76,45,30.13,30.02,29.96,10,9,3,15,8,24,0.44,6,Rain,285
2012-10-7,50,45,39,40,37,35,87,77,59,30.18,30.13,30.09,10,10,8,9,5,,0.07,7,Rain,263
2012-10-8,54,44,35,36,33,29,89,67,41,30.26,30.21,30.17,10,10,10,8,6,,0.00,2,,211
2012-10-9,60,48,36,39,36,34,93,67,44,30.19,30.10,29.95,10,10,6,14,8,22,0.00,0,,195
2012-10-10,53,48,39,43,37,27,93,69,47,30.21,29.98,29.85,10,10,6,16,10,25,0.04,6,Rain,268
2012-10-11,59,46,32,33,30,27,85,60,32,30.27,30.21,30.13,10,10,10,21,9,28,0.00,0,,233
2012-10-12,53,44,34,41,33,28,85,62,41,30.44,30.32,30.15,10,10,10,17,11,26,0.00,4,,14
2012-10-13,64,47,30,55,37,26,85,68,43,30.43,30.24,29.99,10,10,6,16,7,22,0.12,2,Rain,178
2012-10-14,75,69,63,60,58,56,84,70,51,29.98,29.79,29.56,10,10,6,32,18,43,0.20,4,Rain,212
2012-10-15,61,55,48,53,44,38,82,73,66,29.93,29.81,29.60,10,10,10,23,15,43,0.00,8,Rain,291
2012-10-16,59,52,46,40,38,36,74,63,46,30.01,29.92,29.83,10,10,10,10,6,,0.00,5,,257
2012-10-17,72,61,50,50,44,39,71,56,37,29.85,29.76,29.63,10,10,5,14,10,22,0.01,5,Rain,182
2012-10-18,64,57,51,49,43,31,88,61,32,29.75,29.62,29.51,10,9,2,21,15,44,0.17,3,Rain,195
2012-10-19,60,53,46,45,42,31,89,73,33,29.72,29.65,29.58,10,10,6,21,12,29,0.14,6,Rain,196
2012-10-20,52,49,44,45,43,40,89,82,69,29.95,29.74,29.65,10,10,10,20,10,26,0.03,8,Rain,242
2012-10-21,61,51,41,43,40,38,89,71,42,30.13,30.09,29.96,10,10,10,10,6,,0.00,2,,247
2012-10-22,75,60,44,55,46,38,82,66,46,30.15,30.09,30.02,10,10,10,9,5,,0.00,1,,193
2012-10-23,68,64,60,58,55,52,90,73,56,30.04,30.01,29.98,10,10,10,16,9,22,0.09,7,Rain-Thunderstorm,230
2012-10-24,78,68,57,58,55,52,97,68,45,30.09,30.05,30.01,10,10,9,14,6,21,0.04,3,,209
2012-10-25,79,67,55,51,49,45,77,56,31,30.07,30.01,29.94,10,10,10,13,7,23,0.00,0,,188
2012-10-26,66,56,46,50,46,43,93,83,54,30.19,30.13,29.94,10,8,2,17,10,21,0.79,7,Rain,8
2012-10-27,50,48,46,45,43,41,93,86,71,30.14,30.11,30.07,10,9,4,17,12,26,0.42,8,Rain,30
2012-10-28,46,44,41,40,38,35,87,80,66,30.12,30.06,30.01,10,9,6,24,18,34,0.85,8,Rain,28
2012-10-29,44,42,41,39,38,37,87,83,76,29.99,29.84,29.50,10,6,4,39,22,58,1.51,8,Rain,15
2012-10-30,46,44,41,45,41,37,100,90,81,29.45,29.32,29.26,10,4,1,40,29,63,2.42,8,Rain,357
2012-10-31,42,40,39,41,40,39,100,98,93,29.67,29.56,29.43,10,7,2,20,16,28,0.66,8,Rain,297